This is the latest recevied weather packets stored in our database for station/object JO1YDG-13. If no packets are shown the sender has not sent any weather packets the latest 10 day(s).
| Time | Temp. | Humidity | Pressure | Rain* | Wind** | Luminosity | Snow |
|---|---|---|---|---|---|---|---|
| 1777572067 | 11.67° C | 97% | 986.4 hPa | 3.05 mm | - | - | - |
| 1777571167 | 11.67° C | 97% | 986.4 hPa | 2.29 mm | - | - | - |
| 1777569666 | 11.67° C | 97% | 986.4 hPa | 2.03 mm | - | - | - |
| 1777569067 | 11.67° C | 97% | 986.4 hPa | 2.29 mm | - | - | - |
| 1777568767 | 11.67° C | 96% | 986.4 hPa | 2.29 mm | - | - | - |
| 1777568466 | 11.67° C | 96% | 986.5 hPa | 2.29 mm | - | - | - |
| 1777568168 | 11.67° C | 95% | 986.5 hPa | 2.29 mm | - | - | - |
| 1777567267 | 12.22° C | 96% | 986.9 hPa | 1.78 mm | - | - | - |
| 1777566967 | 12.22° C | 96% | 987.4 hPa | 2.03 mm | - | - | - |
| 1777566366 | 12.22° C | 95% | 987.5 hPa | 1.78 mm | - | - | - |
| 1777565467 | 12.22° C | 94% | 987.8 hPa | 1.27 mm | - | - | - |
| 1777564868 | 11.67° C | 95% | 987.9 hPa | 0.76 mm | - | - | - |
| 1777564266 | 12.22° C | 94% | 987.9 hPa | 0.51 mm | - | - | - |
| 1777563368 | 12.22° C | 93% | 988.5 hPa | 0.25 mm | - | - | - |
| 1777563067 | 12.22° C | 93% | 988.5 hPa | 0.25 mm | - | - | - |
| 1777562767 | 12.22° C | 93% | 988.6 hPa | 0.25 mm | - | - | - |
| 1777562168 | 12.22° C | 93% | 988.6 hPa | 0 mm | - | - | - |
| 1777561567 | 12.78° C | 93% | 988.8 hPa | 0 mm | - | - | - |
| 1777561267 | 12.78° C | 93% | 988.9 hPa | 0 mm | - | - | - |
| 1777560667 | 12.78° C | 92% | 988.9 hPa | 0.25 mm | - | - | - |
| 1777559766 | 12.78° C | 92% | 989.3 hPa | 0 mm | - | - | - |
| 1777559468 | 12.78° C | 92% | 989.3 hPa | 0 mm | - | - | - |
| 1777558866 | 12.22° C | 91% | 989.5 hPa | 0 mm | - | - | - |
| 1777558566 | 12.22° C | 91% | 989.5 hPa | 0 mm | - | - | - |
| 1777558268 | 12.22° C | 91% | 989.6 hPa | 0 mm | - | - | - |
* Rain latest hour (hover to see other rain measurements)
** Current wind speed in m/s (hover to see current wind gust speed)